| time (UTC) | temp F | wind direction | speed MPH | gust MPH | rain 1hr in | rain 24hr in | rain mn in | humidity % | barometer mb |
| 20260506161222 | 66 | 196 | 2.0 | 7.0 | 0.00 | 0.00 | 0.00 | 75 | 1005.7 |
| 20260506154221 | 66 | 180 | 2.0 | 6.0 | 0.00 | 0.00 | 0.00 | 73 | 1005.7 |
| 20260506141220 | 65 | 212 | 1.0 | 7.0 | 0.00 | 0.00 | 0.00 | 76 | 1006.4 |
| 20260506131210 | 62 | 216 | 1.0 | 7.0 | 0.00 | 0.00 | 0.00 | 82 | 1006.4 |
| 20260506124206 | 60 | 203 | 2.0 | 5.0 | 0.00 | 0.00 | 0.00 | 85 | 1006.7 |
| 20260506121313 | 59 | 199 | 1.0 | 5.0 | 0.00 | 0.00 | 0.00 | 87 | 1007.4 |
| 20260506121238 | 59 | 199 | 1.0 | 5.0 | 0.00 | 0.00 | 0.00 | 87 | 1007.4 |
| 20260506114204 | 57 | 227 | 2.0 | 5.0 | 0.00 | 0.00 | 0.00 | 89 | 1007.4 |
| 20260506111204 | 56 | 208 | 1.0 | 5.0 | 0.00 | 0.00 | 0.00 | 91 | 1007.4 |
| 20260506104201 | 54 | 242 | 1.0 | 3.0 | 0.00 | 0.00 | 0.00 | 91 | 1007.7 |
| 20260506101156 | 54 | 216 | 1.0 | 4.0 | 0.00 | 0.00 | 0.00 | 90 | 1007.7 |
| 20260506094204 | 54 | 224 | 1.0 | 3.0 | 0.00 | 0.00 | 0.00 | 89 | 1007.4 |
| 20260506091152 | 55 | 246 | 1.0 | 5.0 | 0.00 | 0.00 | 0.00 | 89 | 1007.4 |
| 20260506084148 | 55 | 246 | 1.0 | 4.0 | 0.00 | 0.00 | 0.00 | 87 | 1007.4 |
| 20260506071145 | 57 | 240 | 2.0 | 5.0 | 0.00 | 0.00 | 0.00 | 84 | 1007.4 |
| 20260506061144 | 58 | 233 | 2.0 | 7.0 | 0.00 | 0.00 | 0.00 | 79 | 1006.7 |
| 20260506041127 | 60 | 221 | 2.0 | 6.0 | 0.00 | 0.00 | 0.00 | 74 | 1007.4 |
| 20260506034124 | 60 | 255 | 1.0 | 6.0 | 0.00 | 0.00 | 0.00 | 74 | 1007.4 |
| 20260506031123 | 60 | 234 | 1.0 | 5.0 | 0.00 | 0.00 | 0.00 | 73 | 1007.4 |
| 20260506024120 | 61 | 220 | 2.0 | 6.0 | 0.00 | 0.00 | 0.00 | 71 | 1007.4 |
| 20260506021119 | 62 | 215 | 2.0 | 6.0 | 0.00 | 0.00 | 0.00 | 68 | 1007.4 |
| 20260506004103 | 64 | 221 | 2.0 | 5.0 | 0.00 | 0.00 | 0.00 | 65 | 1006.0 |
| 20260506001101 | 65 | 208 | 2.0 | 5.0 | 0.00 | 0.00 | 0.00 | 63 | 1005.4 |
| 20260505234059 | 66 | 212 | 2.0 | 6.0 | 0.00 | 0.00 | 0.00 | 62 | 1005.4 |
| 20260505231100 | 68 | 212 | 2.0 | 6.0 | 0.00 | 0.00 | 0.00 | 58 | 1004.7 |
| 20260505224058 | 70 | 216 | 3.0 | 8.0 | 0.00 | 0.00 | 0.00 | 55 | 1004.0 |
| 20260505214054 | 74 | 223 | 2.0 | 9.0 | 0.00 | 0.00 | 0.00 | 51 | 1004.0 |
| 20260505211049 | 75 | 192 | 2.0 | 8.0 | 0.00 | 0.00 | 0.00 | 48 | 1003.3 |
| 20260505204044 | 77 | 185 | 3.0 | 9.0 | 0.00 | 0.00 | 0.00 | 47 | 1003.3 |
| 20260505201039 | 79 | 179 | 3.0 | 12.0 | 0.00 | 0.00 | 0.00 | 44 | 1003.0 |
| 20260505194036 | 81 | 201 | 3.0 | 9.0 | 0.00 | 0.00 | 0.00 | 42 | 1003.0 |
| 20260505191035 | 81 | 213 | 3.0 | 9.0 | 0.00 | 0.00 | 0.00 | 42 | 1002.7 |
| 20260505174024 | 80 | 192 | 3.0 | 10.0 | 0.00 | 0.00 | 0.00 | 47 | 1003.7 |
| 20260505171021 | 79 | 187 | 3.0 | 14.0 | 0.00 | 0.00 | 0.00 | 46 | 1004.4 |
| 20260505164035 | 78 | 204 | 3.0 | 9.0 | 0.00 | 0.00 | 0.00 | 46 | 1004.7 |